[[{"header":{"parameterUnit":"m.s-1","parameterCategory":1,"la1":30.2992,"la2":30.254,"lo1":-89.0895,"lo2":-89.0443,"dy":0.0025,"dx":0.0025,"nx":19,"ny":19,"refTime":"2026-05-09T03:00:00:Z","depth":0,"parameterNumber":2,"parameterNumberName":"U-component_of_WINDS"},"data":[0,0,0,-1.3233,-1.3233,-1.3206,-1.3205,-1.3183,-1.3183,0,0,0,0,0,0,0,0,0,0,0,-1.3248,-1.3248,-1.3233,-1.3233,-1.3206,-1.3205,-1.3183,-1.3183,0,0,0,0,0,0,0,0,0,0,0,-1.3248,-1.3248,-1.3248,-1.3233,-1.3206,-1.3205,-1.3183,-1.3199,0,0,0,0,0,0,0,0,0,0,-1.3224,-1.3244,-1.3248,-1.3248,-1.3233,-1.3206,-1.3205,-1.32,-1.3198,-1.3201,0,-1.3204,0,-1.3193,-1.3182,-1.3182,0,0,0,-1.3228,-1.3245,-1.3232,-1.3248,-1.3232,-1.3206,-1.3216,-1.3199,-1.3197,-1.3199,-1.3204,-1.3203,-1.3193,-1.3182,-1.3182,-1.3212,-1.3212,0,0,-1.3229,-1.3247,-1.3233,-1.3231,-1.3236,-1.3217,-1.3216,-1.3198,-1.3204,-1.3204,-1.3202,-1.3193,-1.3182,-1.3182,-1.3212,-1.3212,0,0,0,-1.3237,-1.3248,-1.3235,-1.3232,-1.3227,-1.3217,-1.3215,-1.3205,-1.3199,-1.3201,-1.3192,-1.3182,-1.3182,-1.3211,-1.3212,-1.3247,0,0,0,-1.3237,-1.3253,-1.3236,-1.3247,-1.3227,-1.3215,-1.3223,-1.3201,-1.3198,-1.3193,-1.3182,-1.3182,-1.3211,-1.3212,-1.3245,-1.3261,0,0,0,-1.3248,-1.3254,-1.3252,-1.3248,-1.3237,-1.3215,-1.3208,-1.32,-1.3193,-1.3182,-1.3182,-1.321,-1.3211,-1.3244,-1.3258,-1.3273,0,0,0,-1.3264,-1.3284,-1.3253,-1.3273,-1.3237,-1.3238,-1.3208,-1.3208,-1.3203,-1.3182,-1.3211,-1.3212,-1.3243,-1.3256,-1.3272,-1.3289,-1.3298,0,0,-1.33,-1.3289,-1.33,-1.3271,-1.3282,-1.3241,-1.3257,-1.3236,-1.3219,-1.3215,-1.3216,-1.3246,-1.3258,-1.3273,-1.3345,-1.3352,0,0,0,-1.3317,-1.3325,-1.3324,-1.332,-1.3305,-1.3293,-1.3268,-1.3261,-1.3257,-1.3221,-1.3256,-1.3262,-1.327,-1.3278,-1.3284,-1.329,-1.3216,-1.3216,-1.3216,-1.3394,-1.3371,-1.3387,-1.3361,-1.3358,-1.3332,-1.3328,-1.3314,-1.3291,-1.33,-1.3299,-1.3345,-1.3354,-1.3359,-1.3365,-1.3307,-1.3307,-1.3307,-1.3307,-1.3444,-1.3451,-1.3422,-1.3426,-1.3403,-1.3406,-1.3383,-1.3368,-1.3368,-1.3344,-1.335,-1.3324,-1.3367,-1.3372,-1.331,-1.3309,-1.3309,-1.3309,-1.3309,-1.349,-1.3489,-1.348,-1.3473,-1.3471,-1.3445,-1.3447,-1.3425,-1.3405,-1.3412,-1.3407,-1.3406,-1.3402,-1.3411,-1.3412,-1.3412,-1.3412,-1.3412,-1.3412,-1.3541,-1.3529,-1.3533,-1.352,-1.3515,-1.3506,-1.3482,-1.3477,-1.3466,-1.345,-1.345,-1.3427,-1.3376,-1.3363,-1.3414,-1.3414,-1.3414,-1.3413,-1.3413,-1.3598,-1.3582,-1.3587,-1.3583,-1.3566,-1.3565,-1.3538,-1.3531,-1.3524,-1.3525,-1.3502,-1.3468,-1.3455,-1.345,-1.3439,-1.3507,-1.3507,-1.3507,-1.3507,-1.3636,-1.3628,-1.3629,-1.3623,-1.3615,-1.3592,-1.36,-1.3583,-1.3562,-1.3556,-1.3544,-1.3528,-1.3524,-1.3514,-1.3508,-1.3497,-1.3578,-1.3578,-1.3578,-1.3669,-1.366,-1.367,-1.3649,-1.3634,-1.3623,-1.363,-1.3625,-1.3598,-1.358,-1.3552,-1.3549,-1.3523,-1.3516,-1.3495,-1.3485,-1.3465,0,0]},{"header":{"parameterUnit":"m.s-1","parameterCategory":1,"la1":30.2992,"la2":30.254,"lo1":-89.0895,"lo2":-89.0443,"dy":0.0025,"dx":0.0025,"nx":19,"ny":19,"refTime":"2026-05-09T03:00:00:Z","depth":0,"parameterNumber":3,"parameterNumberName":"V-component_of_WINDS"},"data":[0,0,0,4.2224,4.2224,4.2179,4.2179,4.2122,4.2121,0,0,0,0,0,0,0,0,0,0,0,4.224,4.224,4.2224,4.2223,4.2179,4.2179,4.2122,4.2121,0,0,0,0,0,0,0,0,0,0,0,4.224,4.224,4.2239,4.2223,4.2179,4.2179,4.2122,4.2155,0,0,0,0,0,0,0,0,0,0,4.2198,4.2215,4.224,4.2239,4.2223,4.2179,4.2179,4.2156,4.2153,4.2143,0,4.2136,0,4.2128,4.2118,4.2117,0,0,0,4.2221,4.2218,4.2205,4.2239,4.2223,4.2179,4.2198,4.2154,4.215,4.2138,4.2136,4.2133,4.2127,4.2117,4.2117,4.2074,4.2074,0,0,4.2223,4.2232,4.2207,4.2202,4.2212,4.22,4.2197,4.2152,4.2149,4.2135,4.2132,4.2126,4.2117,4.2116,4.2074,4.2074,0,0,0,4.2232,4.2234,4.2222,4.2204,4.2197,4.2198,4.2195,4.2151,4.2146,4.2131,4.2126,4.2117,4.2116,4.2074,4.2074,4.208,0,0,0,4.2233,4.2239,4.2223,4.2228,4.2198,4.2174,4.2195,4.2149,4.2144,4.2126,4.2117,4.2115,4.2074,4.2074,4.208,4.2081,0,0,0,4.2242,4.224,4.2235,4.2228,4.221,4.2174,4.2167,4.2148,4.2141,4.2117,4.2115,4.2074,4.2074,4.208,4.2081,4.2073,0,0,0,4.2253,4.2239,4.2235,4.2218,4.221,4.2179,4.2167,4.2143,4.2123,4.2116,4.2074,4.2074,4.208,4.2081,4.2074,4.2069,4.2068,0,0,4.2241,4.2238,4.2227,4.2222,4.2195,4.2185,4.2158,4.213,4.2118,4.2089,4.2087,4.208,4.2081,4.2073,4.2059,4.2058,0,0,0,4.2226,4.2219,4.2209,4.2193,4.2174,4.2157,4.2133,4.2123,4.2099,4.2106,4.2075,4.2075,4.207,4.2067,4.2067,4.2062,4.2073,4.2073,4.2073,4.2221,4.2209,4.219,4.2173,4.2158,4.2135,4.212,4.2102,4.2092,4.2086,4.2077,4.207,4.2067,4.2066,4.2062,4.2073,4.2073,4.2073,4.2073,4.2202,4.2189,4.218,4.2158,4.2145,4.2126,4.2103,4.2097,4.2076,4.2075,4.207,4.207,4.2066,4.2061,4.2073,4.2073,4.2073,4.2073,4.2073,4.2197,4.2189,4.218,4.2156,4.2139,4.2122,4.2103,4.2091,4.2079,4.2074,4.2064,4.2064,4.2062,4.207,4.207,4.207,4.207,4.207,4.207,4.2196,4.2185,4.2173,4.2153,4.2142,4.2125,4.2103,4.2091,4.2074,4.2066,4.2066,4.2057,4.2069,4.2072,4.207,4.207,4.207,4.207,4.207,4.2182,4.2184,4.2164,4.2154,4.213,4.2114,4.21,4.2076,4.2064,4.2056,4.2048,4.2059,4.2054,4.2055,4.2057,4.2051,4.2051,4.2051,4.2051,4.2178,4.2175,4.2154,4.2138,4.212,4.2106,4.2083,4.2066,4.2047,4.2039,4.2038,4.204,4.2041,4.2036,4.2037,4.2039,4.2029,4.2029,4.2028,4.2168,4.2164,4.2148,4.2133,4.2114,4.2097,4.2075,4.2055,4.2035,4.2027,4.2032,4.2033,4.2037,4.2039,4.2031,4.2032,4.2036,0,0]}]]